Location: ????????
(60.4333°N, 46.4710°E)
Time: 03:55:57
(UTC+00:00)

Cosmos 1932 - Pass Details

Date: 25 November 2020
Orbit: 930 x 1000 km, 65.0° (Epoch: 19 January)

Event Time Altitude Azimuth Distance (km) Brightness Sun altitude
Rises 15:43:23 0° 224° (SW) 3,717 8.1 -25.7°
Reaches altitude 10° 15:45:58 10° 223° (SW) 2,769 7.3 -26.0°
Maximum altitude 15:52:27 74° 140° (SE) 1,040 4.4 -26.8°
Enters shadow 15:53:05 68° 98° (E) 1,068 4.4 -26.9°
